Station Historical Data
Daily Summary for April 11, 2017 Units:  English    Metric   Both
« Previous Day
Next Day »
Daily Weekly Monthly Yearly Custom
  High: Low: Average:
Temperature: 52.6 °F 45.4 °F 48.8 °F
Dew Point: 45.7 °F 38.3 °F 41.9 °F
Humidity: 83 % 68 % 77 %
Wind Speed: 27.0 mph 0.0 mph 4.3 mph
Wind Gust: 32.0 mph - -
Wind:- - SSE
Pressure: 30.12 in 30.00 in -
Precipitation: 0.00 in    
Historical Graphs
 
 
Tabular Data for April 11, 2017
Time Temperature Dew Point Pressure Wind Wind Speed Wind Gust Humidity Rainfall Rate (Hourly) solar
00:04 45.4 °F 40.5 °F 30.12 in East 4.0 mph 6.0 mph 83 % 0.00 in 0.00 W/m2
00:09 45.5 °F 40.3 °F 30.11 in East 2.0 mph 7.0 mph 82 % 0.00 in 0.00 W/m2
00:14 45.6 °F 40.7 °F 30.11 in East 4.0 mph 7.0 mph 83 % 0.00 in 0.00 W/m2
00:19 45.5 °F 40.3 °F 30.11 in Calm   6.0 mph 82 % 0.00 in 0.00 W/m2
00:24 45.6 °F 40.4 °F 30.11 in Calm   9.0 mph 82 % 0.00 in 0.00 W/m2
00:29 45.6 °F 40.4 °F 30.11 in ESE 6.0 mph 8.0 mph 82 % 0.00 in 0.00 W/m2
00:34 45.6 °F 40.4 °F 30.11 in ESE 1.0 mph 7.0 mph 82 % 0.00 in 0.00 W/m2
00:39 45.6 °F 40.4 °F 30.10 in ESE 2.0 mph 8.0 mph 82 % 0.00 in 0.00 W/m2
00:44 45.6 °F 40.4 °F 30.10 in ESE 2.0 mph 6.0 mph 82 % 0.00 in 0.00 W/m2
00:49 45.6 °F 40.4 °F 30.10 in ESE 2.0 mph 7.0 mph 82 % 0.00 in 0.00 W/m2
00:54 45.7 °F 40.5 °F 30.10 in Calm   6.0 mph 82 % 0.00 in 0.00 W/m2
00:59 45.7 °F 40.5 °F 30.10 in Calm   4.0 mph 82 % 0.00 in 0.00 W/m2
01:03 45.7 °F 40.5 °F 30.10 in ESE 1.0 mph 7.0 mph 82 % 0.00 in 0.00 W/m2
01:08 45.8 °F 40.6 °F 30.10 in Calm   4.0 mph 82 % 0.00 in 0.00 W/m2
01:13 45.8 °F 40.6 °F 30.10 in Calm   5.0 mph 82 % 0.00 in 0.00 W/m2
01:18 45.8 °F 40.6 °F 30.10 in ESE 1.0 mph 2.0 mph 82 % 0.00 in 0.00 W/m2
01:23 45.8 °F 40.6 °F 30.09 in Calm   8.0 mph 82 % 0.00 in 0.00 W/m2
01:28 45.9 °F 40.7 °F 30.09 in ESE 5.0 mph 8.0 mph 82 % 0.00 in 0.00 W/m2
01:33 45.9 °F 40.4 °F 30.09 in Calm   5.0 mph 81 % 0.00 in 0.00 W/m2
01:38 45.9 °F 40.4 °F 30.08 in ESE 6.0 mph 6.0 mph 81 % 0.00 in 0.00 W/m2
01:43 45.9 °F 40.7 °F 30.08 in ESE 1.0 mph 4.0 mph 82 % 0.00 in 0.00 W/m2
01:48 46.0 °F 40.5 °F 30.08 in Calm   6.0 mph 81 % 0.00 in 0.00 W/m2
01:53 46.0 °F 40.5 °F 30.08 in Calm   7.0 mph 81 % 0.00 in 0.00 W/m2
01:58 46.0 °F 40.5 °F 30.08 in Calm   4.0 mph 81 % 0.00 in 0.00 W/m2
02:03 46.0 °F 40.2 °F 30.08 in ESE 4.0 mph 5.0 mph 80 % 0.00 in 0.00 W/m2
02:08 46.0 °F 40.2 °F 30.08 in Calm   6.0 mph 80 % 0.00 in 0.00 W/m2
02:13 46.0 °F 39.9 °F 30.08 in East 1.0 mph 6.0 mph 79 % 0.00 in 0.00 W/m2
02:18 46.1 °F 40.0 °F 30.07 in Calm   12.0 mph 79 % 0.00 in 0.00 W/m2
02:23 46.1 °F 40.0 °F 30.07 in Calm   4.0 mph 79 % 0.00 in 0.00 W/m2
02:28 46.1 °F 40.0 °F 30.07 in Calm   8.0 mph 79 % 0.00 in 0.00 W/m2
02:33 46.1 °F 40.0 °F 30.07 in Calm   12.0 mph 79 % 0.00 in 0.00 W/m2
02:36 46.1 °F 40.0 °F 30.07 in Calm   4.0 mph 79 % 0.00 in 0.00 W/m2
02:41 46.2 °F 40.1 °F 30.07 in Calm   2.0 mph 79 % 0.00 in 0.00 W/m2
02:46 46.2 °F 39.7 °F 30.07 in ESE 2.0 mph 4.0 mph 78 % 0.00 in 0.00 W/m2
02:51 46.2 °F 39.7 °F 30.07 in Calm   4.0 mph 78 % 0.00 in 0.00 W/m2
02:56 46.2 °F 39.7 °F 30.06 in ESE 1.0 mph 4.0 mph 78 % 0.00 in 0.00 W/m2
03:01 46.2 °F 39.7 °F 30.07 in Calm   1.0 mph 78 % 0.00 in 0.00 W/m2
03:06 46.3 °F 39.8 °F 30.06 in Calm   4.0 mph 78 % 0.00 in 0.00 W/m2
03:11 46.3 °F 40.2 °F 30.06 in ESE 2.0 mph 7.0 mph 79 % 0.00 in 0.00 W/m2
03:16 46.3 °F 40.2 °F 30.06 in ESE 2.0 mph 4.0 mph 79 % 0.00 in 0.00 W/m2
03:17 46.3 °F 40.2 °F 30.06 in ESE 6.0 mph 6.0 mph 79 % 0.00 in 0.00 W/m2
03:22 46.2 °F 39.7 °F 30.06 in ESE 4.0 mph 4.0 mph 78 % 0.00 in 0.00 W/m2
03:27 46.2 °F 39.7 °F 30.06 in Calm   5.0 mph 78 % 0.00 in 0.00 W/m2
03:32 46.2 °F 39.7 °F 30.06 in Calm   2.0 mph 78 % 0.00 in 0.00 W/m2
03:37 46.2 °F 39.7 °F 30.05 in Calm   1.0 mph 78 % 0.00 in 0.00 W/m2
03:42 46.2 °F 39.7 °F 30.05 in ESE 4.0 mph 4.0 mph 78 % 0.00 in 0.00 W/m2
03:47 46.2 °F 39.7 °F 30.05 in Calm     78 % 0.00 in 0.00 W/m2
03:52 46.2 °F 39.7 °F 30.05 in Calm   5.0 mph 78 % 0.00 in 0.00 W/m2
03:57 46.2 °F 39.7 °F 30.05 in ESE 4.0 mph 7.0 mph 78 % 0.00 in 0.00 W/m2
03:58 46.2 °F 39.7 °F 30.05 in Calm   7.0 mph 78 % 0.00 in 0.00 W/m2
04:03 46.2 °F 39.4 °F 30.05 in Calm   6.0 mph 77 % 0.00 in 0.00 W/m2
04:08 46.2 °F 39.4 °F 30.05 in Calm   4.0 mph 77 % 0.00 in 0.00 W/m2
04:13 46.2 °F 39.4 °F 30.05 in Calm     77 % 0.00 in 0.00 W/m2
04:18 46.2 °F 39.4 °F 30.05 in Calm     77 % 0.00 in 0.00 W/m2
04:23 46.3 °F 39.5 °F 30.05 in Calm     77 % 0.00 in 0.00 W/m2
04:28 46.3 °F 39.8 °F 30.04 in Calm     78 % 0.00 in 0.00 W/m2
04:33 46.3 °F 39.8 °F 30.04 in Calm     78 % 0.00 in 0.00 W/m2
04:38 46.2 °F 39.7 °F 30.04 in Calm     78 % 0.00 in 0.00 W/m2
04:43 46.2 °F 39.7 °F 30.04 in Calm     78 % 0.00 in 0.00 W/m2
04:48 46.1 °F 39.6 °F 30.04 in Calm     78 % 0.00 in 0.00 W/m2
04:53 46.1 °F 40.0 °F 30.04 in Calm     79 % 0.00 in 0.00 W/m2
04:58 46.1 °F 40.0 °F 30.03 in Calm     79 % 0.00 in 0.00 W/m2
05:03 46.1 °F 39.6 °F 30.03 in Calm     78 % 0.00 in 0.00 W/m2
05:04 46.0 °F 39.5 °F 30.03 in Calm     78 % 0.00 in 0.00 W/m2
05:09 46.0 °F 39.9 °F 30.03 in Calm     79 % 0.00 in 0.00 W/m2
05:14 45.9 °F 39.4 °F 30.03 in ESE 2.0 mph 5.0 mph 78 % 0.00 in 0.00 W/m2
05:19 45.9 °F 39.8 °F 30.03 in Calm   5.0 mph 79 % 0.00 in 0.00 W/m2
05:24 45.9 °F 39.8 °F 30.03 in ESE 2.0 mph 6.0 mph 79 % 0.00 in 0.00 W/m2
05:30 45.8 °F 39.3 °F 30.03 in Calm   5.0 mph 78 % 0.00 in 0.00 W/m2
05:35 45.8 °F 39.3 °F 30.03 in Calm   5.0 mph 78 % 0.00 in 0.00 W/m2
05:40 45.8 °F 39.3 °F 30.03 in Calm   5.0 mph 78 % 0.00 in 0.00 W/m2
05:45 45.8 °F 39.7 °F 30.03 in ESE 1.0 mph 8.0 mph 79 % 0.00 in 0.00 W/m2
05:50 45.8 °F 39.3 °F 30.02 in East 6.0 mph 7.0 mph 78 % 0.00 in 0.00 W/m2
05:55 45.7 °F 39.6 °F 30.03 in Calm   6.0 mph 79 % 0.00 in 0.00 W/m2
06:00 45.7 °F 39.6 °F 30.03 in East 2.0 mph 6.0 mph 79 % 0.00 in 0.00 W/m2
06:05 45.7 °F 39.6 °F 30.02 in East 1.0 mph 13.0 mph 79 % 0.00 in 0.00 W/m2
06:10 45.6 °F 39.2 °F 30.01 in ENE 1.0 mph 5.0 mph 78 % 0.00 in 0.00 W/m2
06:15 45.6 °F 39.2 °F 30.00 in ENE 1.0 mph 4.0 mph 78 % 0.00 in 0.00 W/m2
06:20 45.6 °F 39.2 °F 30.01 in Calm   3.0 mph 78 % 0.00 in 0.00 W/m2
06:25 45.7 °F 39.6 °F 30.01 in Calm   4.0 mph 79 % 0.00 in 0.00 W/m2
06:30 45.7 °F 39.2 °F 30.01 in Calm   7.0 mph 78 % 0.00 in 0.00 W/m2
06:35 45.7 °F 39.2 °F 30.01 in Calm   4.0 mph 78 % 0.00 in 0.00 W/m2
06:37 45.7 °F 39.2 °F 30.01 in ESE 2.0 mph 5.0 mph 78 % 0.00 in 0.00 W/m2
06:42 45.7 °F 39.2 °F 30.01 in ESE 1.0 mph 6.0 mph 78 % 0.00 in 5.00 W/m2
06:47 45.8 °F 39.3 °F 30.02 in ESE 2.0 mph 5.0 mph 78 % 0.00 in 7.00 W/m2
06:52 45.8 °F 39.3 °F 30.01 in Calm   7.0 mph 78 % 0.00 in 9.00 W/m2
06:57 45.8 °F 39.7 °F 30.01 in ESE 6.0 mph 6.0 mph 79 % 0.00 in 12.00 W/m2
07:02 45.7 °F 38.9 °F 30.02 in ESE 4.0 mph 7.0 mph 77 % 0.00 in 16.00 W/m2
07:07 45.8 °F 39.3 °F 30.01 in East 6.0 mph 8.0 mph 78 % 0.00 in 21.00 W/m2
07:12 45.8 °F 39.0 °F 30.01 in Calm   8.0 mph 77 % 0.00 in 26.00 W/m2
07:17 45.8 °F 38.3 °F 30.01 in Calm   5.0 mph 75 % 0.00 in 30.00 W/m2
07:22 45.9 °F 38.8 °F 30.02 in Calm   6.0 mph 76 % 0.00 in 32.00 W/m2
07:27 46.0 °F 38.9 °F 30.02 in ESE 5.0 mph 7.0 mph 76 % 0.00 in 33.00 W/m2
07:32 46.0 °F 38.9 °F 30.02 in Calm   5.0 mph 76 % 0.00 in 32.00 W/m2
07:37 46.1 °F 39.3 °F 30.02 in ESE 2.0 mph 7.0 mph 77 % 0.00 in 30.00 W/m2
07:42 46.1 °F 39.3 °F 30.02 in Calm   4.0 mph 77 % 0.00 in 33.00 W/m2
07:43 46.2 °F 39.4 °F 30.02 in ESE 4.0 mph 5.0 mph 77 % 0.00 in 35.00 W/m2
07:48 46.2 °F 39.4 °F 30.03 in ESE 5.0 mph 5.0 mph 77 % 0.00 in 37.00 W/m2
07:53 46.2 °F 39.1 °F 30.03 in Calm   5.0 mph 76 % 0.00 in 44.00 W/m2
07:58 46.3 °F 39.2 °F 30.02 in Calm   5.0 mph 76 % 0.00 in 53.00 W/m2
08:03 46.3 °F 39.2 °F 30.02 in ESE 1.0 mph 4.0 mph 76 % 0.00 in 54.00 W/m2
08:08 46.3 °F 39.5 °F 30.02 in Calm   5.0 mph 77 % 0.00 in 62.00 W/m2
08:13 46.4 °F 39.9 °F 30.02 in ESE 5.0 mph 5.0 mph 78 % 0.00 in 62.00 W/m2
08:18 46.4 °F 39.9 °F 30.02 in ESE 6.0 mph 7.0 mph 78 % 0.00 in 63.00 W/m2
08:23 46.4 °F 39.9 °F 30.02 in ESE 2.0 mph 7.0 mph 78 % 0.00 in 62.00 W/m2
08:28 46.5 °F 39.4 °F 30.02 in Calm   9.0 mph 76 % 0.00 in 62.00 W/m2
08:33 46.5 °F 39.7 °F 30.03 in ESE 2.0 mph 9.0 mph 77 % 0.00 in 72.00 W/m2
08:38 46.6 °F 39.8 °F 30.03 in Calm   8.0 mph 77 % 0.00 in 74.00 W/m2
08:43 46.7 °F 39.5 °F 30.03 in SE 5.0 mph 7.0 mph 76 % 0.00 in 72.00 W/m2
08:48 46.7 °F 39.9 °F 30.03 in Calm   5.0 mph 77 % 0.00 in 74.00 W/m2
08:53 46.9 °F 40.1 °F 30.03 in Calm   6.0 mph 77 % 0.00 in 97.00 W/m2
08:59 46.9 °F 40.1 °F 30.03 in SE 2.0 mph 7.0 mph 77 % 0.00 in 90.00 W/m2
09:04 47.0 °F 40.2 °F 30.02 in Calm   6.0 mph 77 % 0.00 in 91.00 W/m2
09:09 47.1 °F 40.3 °F 30.02 in SE 4.0 mph 7.0 mph 77 % 0.00 in 104.00 W/m2
09:14 47.2 °F 40.4 °F 30.02 in Calm   6.0 mph 77 % 0.00 in 104.00 W/m2
09:19 47.2 °F 40.4 °F 30.02 in Calm   6.0 mph 77 % 0.00 in 109.00 W/m2
09:24 47.3 °F 40.5 °F 30.02 in SE 1.0 mph 12.0 mph 77 % 0.00 in 120.00 W/m2
09:29 47.4 °F 40.2 °F 30.02 in SSE 5.0 mph 6.0 mph 76 % 0.00 in 116.00 W/m2
09:34 47.5 °F 40.7 °F 30.02 in Calm   8.0 mph 77 % 0.00 in 102.00 W/m2
09:39 47.6 °F 40.8 °F 30.02 in SE 2.0 mph 9.0 mph 77 % 0.00 in 113.00 W/m2
09:44 47.7 °F 40.8 °F 30.02 in Calm   10.0 mph 77 % 0.00 in 102.00 W/m2
09:49 47.8 °F 41.0 °F 30.02 in SSE 5.0 mph 11.0 mph 77 % 0.00 in 107.00 W/m2
09:54 47.9 °F 41.0 °F 30.03 in SSE 4.0 mph 10.0 mph 77 % 0.00 in 135.00 W/m2
09:59 48.1 °F 41.2 °F 30.03 in SSE 14.0 mph 17.0 mph 77 % 0.00 in 135.00 W/m2
10:04 48.2 °F 41.3 °F 30.03 in South 7.0 mph 9.0 mph 77 % 0.00 in 193.00 W/m2
10:09 48.4 °F 41.2 °F 30.03 in SSE 5.0 mph 11.0 mph 76 % 0.00 in 200.00 W/m2
10:14 48.6 °F 41.0 °F 30.03 in Calm   15.0 mph 75 % 0.00 in 244.00 W/m2
10:19 48.9 °F 41.3 °F 30.04 in Calm   2.0 mph 75 % 0.00 in 272.00 W/m2
10:24 49.2 °F 41.6 °F 30.04 in Calm   15.0 mph 75 % 0.00 in 230.00 W/m2
10:29 49.5 °F 41.6 °F 30.04 in Calm   16.0 mph 74 % 0.00 in 160.00 W/m2
10:34 49.8 °F 41.9 °F 30.04 in SSW 6.0 mph 12.0 mph 74 % 0.00 in 121.00 W/m2
10:39 50.0 °F 42.0 °F 30.04 in South 1.0 mph 10.0 mph 74 % 0.00 in 160.00 W/m2
10:44 50.1 °F 42.2 °F 30.04 in South 10.0 mph 17.0 mph 74 % 0.00 in 207.00 W/m2
10:49 50.3 °F 42.7 °F 30.03 in SSW 7.0 mph 11.0 mph 75 % 0.00 in 204.00 W/m2
10:54 50.3 °F 43.4 °F 30.04 in South 11.0 mph 11.0 mph 77 % 0.00 in 262.00 W/m2
10:59 50.4 °F 44.1 °F 30.04 in Calm   14.0 mph 79 % 0.00 in 258.00 W/m2
11:04 50.3 °F 43.7 °F 30.04 in Calm   14.0 mph 78 % 0.00 in 178.00 W/m2
11:09 50.2 °F 43.6 °F 30.04 in South 7.0 mph 17.0 mph 78 % 0.00 in 195.00 W/m2
11:14 50.2 °F 44.0 °F 30.04 in South 8.0 mph 11.0 mph 79 % 0.00 in 278.00 W/m2
11:19 50.2 °F 43.6 °F 30.03 in South 12.0 mph 15.0 mph 78 % 0.00 in 267.00 W/m2
11:24 50.2 °F 43.3 °F 30.03 in South 6.0 mph 13.0 mph 77 % 0.00 in 211.00 W/m2
11:29 50.3 °F 43.4 °F 30.03 in Calm   10.0 mph 77 % 0.00 in 146.00 W/m2
11:34 50.4 °F 43.1 °F 30.04 in South 4.0 mph 10.0 mph 76 % 0.00 in 174.00 W/m2
11:39 50.5 °F 43.6 °F 30.03 in SSW 9.0 mph 11.0 mph 77 % 0.00 in 160.00 W/m2
11:44 50.6 °F 43.3 °F 30.04 in SSW 7.0 mph 12.0 mph 76 % 0.00 in 171.00 W/m2
11:49 50.6 °F 43.7 °F 30.04 in Calm   8.0 mph 77 % 0.00 in 200.00 W/m2
11:54 50.7 °F 43.8 °F 30.04 in SSW 10.0 mph 12.0 mph 77 % 0.00 in 179.00 W/m2
11:59 50.8 °F 44.2 °F 30.04 in SW 5.0 mph 9.0 mph 78 % 0.00 in 202.00 W/m2
12:04 50.8 °F 44.5 °F 30.04 in Calm   10.0 mph 79 % 0.00 in 202.00 W/m2
12:09 50.9 °F 44.6 °F 30.04 in SSW 5.0 mph 12.0 mph 79 % 0.00 in 142.00 W/m2
12:14 50.8 °F 44.2 °F 30.04 in Calm   12.0 mph 78 % 0.00 in 218.00 W/m2
12:19 50.7 °F 44.4 °F 30.04 in SW 2.0 mph 10.0 mph 79 % 0.00 in 316.00 W/m2
12:24 50.7 °F 44.4 °F 30.04 in South 1.0 mph 19.0 mph 79 % 0.00 in 362.00 W/m2
12:30 50.8 °F 44.5 °F 30.04 in SSW 21.0 mph 21.0 mph 79 % 0.00 in 432.00 W/m2
12:35 50.9 °F 44.3 °F 30.05 in SW 6.0 mph 14.0 mph 78 % 0.00 in 352.00 W/m2
12:40 51.2 °F 44.6 °F 30.05 in South 19.0 mph 21.0 mph 78 % 0.00 in 253.00 W/m2
12:45 51.3 °F 44.7 °F 30.05 in SW 4.0 mph 14.0 mph 78 % 0.00 in 218.00 W/m2
12:50 51.3 °F 45.3 °F 30.05 in SW 10.0 mph 12.0 mph 80 % 0.00 in 338.00 W/m2
12:55 51.3 °F 45.7 °F 30.04 in South 9.0 mph 15.0 mph 81 % 0.00 in 258.00 W/m2
13:00 51.3 °F 45.7 °F 30.04 in SSW 13.0 mph 18.0 mph 81 % 0.00 in 232.00 W/m2
13:05 51.3 °F 45.3 °F 30.04 in SSW 9.0 mph 13.0 mph 80 % 0.00 in 258.00 W/m2
13:10 51.3 °F 45.3 °F 30.04 in Calm   13.0 mph 80 % 0.00 in 353.00 W/m2
13:15 51.3 °F 45.7 °F 30.04 in SSW 16.0 mph 19.0 mph 81 % 0.00 in 302.00 W/m2
13:20 51.3 °F 45.0 °F 30.04 in South 3.0 mph 16.0 mph 79 % 0.00 in 290.00 W/m2
13:25 51.4 °F 45.1 °F 30.04 in Calm   19.0 mph 79 % 0.00 in 313.00 W/m2
13:30 51.5 °F 45.2 °F 30.04 in South 11.0 mph 19.0 mph 79 % 0.00 in 243.00 W/m2
13:35 51.6 °F 45.0 °F 30.04 in SSE 9.0 mph 19.0 mph 78 % 0.00 in 109.00 W/m2
13:40 51.7 °F 44.7 °F 30.04 in South 13.0 mph 16.0 mph 77 % 0.00 in 128.00 W/m2
13:45 51.6 °F 44.0 °F 30.04 in South 7.0 mph 23.0 mph 75 % 0.00 in 121.00 W/m2
13:50 51.6 °F 43.2 °F 30.04 in South 14.0 mph 21.0 mph 73 % 0.00 in 116.00 W/m2
13:55 51.5 °F 43.5 °F 30.04 in SSW 6.0 mph 21.0 mph 74 % 0.00 in 128.00 W/m2
14:00 51.5 °F 42.8 °F 30.04 in South 15.0 mph 21.0 mph 72 % 0.00 in 213.00 W/m2
14:05 51.5 °F 43.1 °F 30.04 in SE 6.0 mph 22.0 mph 73 % 0.00 in 262.00 W/m2
14:10 51.6 °F 43.2 °F 30.04 in SSE 19.0 mph 24.0 mph 73 % 0.00 in 366.00 W/m2
14:15 51.7 °F 43.0 °F 30.04 in South 24.0 mph 25.0 mph 72 % 0.00 in 257.00 W/m2
14:20 51.8 °F 42.7 °F 30.04 in SSE 8.0 mph 26.0 mph 71 % 0.00 in 276.00 W/m2
14:25 51.9 °F 42.8 °F 30.04 in SSE 5.0 mph 19.0 mph 71 % 0.00 in 243.00 W/m2
14:30 51.9 °F 42.8 °F 30.04 in SSE 27.0 mph 28.0 mph 71 % 0.00 in 218.00 W/m2
14:35 52.0 °F 42.2 °F 30.04 in South 13.0 mph 24.0 mph 69 % 0.00 in 165.00 W/m2
14:40 52.0 °F 41.8 °F 30.04 in SE 19.0 mph 25.0 mph 68 % 0.00 in 155.00 W/m2
14:45 52.0 °F 42.2 °F 30.05 in South 21.0 mph 21.0 mph 69 % 0.00 in 151.00 W/m2
14:51 52.1 °F 42.6 °F 30.04 in SSW 19.0 mph 32.0 mph 70 % 0.00 in 207.00 W/m2
14:56 52.0 °F 43.3 °F 30.04 in South 21.0 mph 27.0 mph 72 % 0.00 in 216.00 W/m2
15:01 51.9 °F 43.5 °F 30.04 in South 8.0 mph 9.0 mph 73 % 0.00 in 258.00 W/m2
15:06 51.8 °F 43.8 °F 30.04 in South 8.0 mph 12.0 mph 74 % 0.00 in 232.00 W/m2
15:11 51.8 °F 43.4 °F 30.04 in SE 7.0 mph 10.0 mph 73 % 0.00 in 278.00 W/m2
15:16 51.9 °F 43.5 °F 30.04 in SSW 8.0 mph 12.0 mph 73 % 0.00 in 237.00 W/m2
15:21 52.0 °F 43.6 °F 30.04 in South 17.0 mph 23.0 mph 73 % 0.00 in 227.00 W/m2
15:26 52.2 °F 43.5 °F 30.04 in South 5.0 mph 10.0 mph 72 % 0.00 in 141.00 W/m2
15:31 52.2 °F 43.5 °F 30.04 in SE 10.0 mph 21.0 mph 72 % 0.00 in 120.00 W/m2
15:36 52.3 °F 43.2 °F 30.04 in SSE 12.0 mph 12.0 mph 71 % 0.00 in 153.00 W/m2
15:41 52.3 °F 43.9 °F 30.04 in SSW 7.0 mph 7.0 mph 73 % 0.00 in 139.00 W/m2
15:46 52.3 °F 43.2 °F 30.03 in SW 2.0 mph 10.0 mph 71 % 0.00 in 142.00 W/m2
15:51 52.3 °F 43.2 °F 30.04 in SSW 14.0 mph 21.0 mph 71 % 0.00 in 86.00 W/m2
15:56 52.4 °F 43.3 °F 30.04 in SW 11.0 mph 13.0 mph 71 % 0.00 in 62.00 W/m2
16:01 52.3 °F 43.5 °F 30.04 in South 9.0 mph 13.0 mph 72 % 0.00 in 81.00 W/m2
16:06 52.3 °F 43.2 °F 30.04 in SSE 11.0 mph 11.0 mph 71 % 0.00 in 118.00 W/m2
16:11 52.3 °F 44.6 °F 30.04 in South 10.0 mph 19.0 mph 75 % 0.00 in 63.00 W/m2
16:16 52.1 °F 43.7 °F 30.05 in South 8.0 mph 12.0 mph 73 % 0.00 in 97.00 W/m2
16:21 51.9 °F 43.5 °F 30.04 in South 10.0 mph 14.0 mph 73 % 0.00 in 120.00 W/m2
16:26 51.8 °F 43.1 °F 30.04 in SSE 7.0 mph 10.0 mph 72 % 0.00 in 137.00 W/m2
16:31 51.8 °F 43.4 °F 30.04 in SSE 10.0 mph 12.0 mph 73 % 0.00 in 121.00 W/m2
16:36 51.8 °F 43.4 °F 30.04 in SSE 6.0 mph 12.0 mph 73 % 0.00 in 149.00 W/m2
16:41 51.9 °F 43.2 °F 30.04 in SSE 9.0 mph 14.0 mph 72 % 0.00 in 190.00 W/m2
16:46 52.0 °F 43.3 °F 30.04 in SSE 16.0 mph 16.0 mph 72 % 0.00 in 141.00 W/m2
16:51 52.2 °F 43.1 °F 30.04 in South 1.0 mph 12.0 mph 71 % 0.00 in 183.00 W/m2
16:56 52.3 °F 43.2 °F 30.04 in SSE 5.0 mph 10.0 mph 71 % 0.00 in 142.00 W/m2
17:01 52.4 °F 42.9 °F 30.04 in South 9.0 mph 9.0 mph 70 % 0.00 in 125.00 W/m2
17:07 52.6 °F 43.5 °F 30.04 in Calm   9.0 mph 71 % 0.00 in 118.00 W/m2
17:12 52.6 °F 43.5 °F 30.05 in SSE 8.0 mph 12.0 mph 71 % 0.00 in 98.00 W/m2
17:17 52.6 °F 43.5 °F 30.05 in South 8.0 mph 17.0 mph 71 % 0.00 in 83.00 W/m2
17:22 52.6 °F 43.1 °F 30.04 in SSW 12.0 mph 12.0 mph 70 % 0.00 in 81.00 W/m2
17:27 52.6 °F 43.5 °F 30.05 in SE 13.0 mph 13.0 mph 71 % 0.00 in 76.00 W/m2
17:32 52.6 °F 43.1 °F 30.05 in SSW 7.0 mph 10.0 mph 70 % 0.00 in 69.00 W/m2
17:37 52.6 °F 43.5 °F 30.05 in Calm   9.0 mph 71 % 0.00 in 47.00 W/m2
17:42 52.5 °F 43.4 °F 30.05 in SSE 7.0 mph 11.0 mph 71 % 0.00 in 65.00 W/m2
17:47 52.5 °F 43.8 °F 30.05 in SSW 1.0 mph 15.0 mph 72 % 0.00 in 60.00 W/m2
17:52 52.4 °F 43.3 °F 30.05 in SSW 11.0 mph 17.0 mph 71 % 0.00 in 58.00 W/m2
17:57 52.4 °F 43.3 °F 30.05 in SSE 9.0 mph 10.0 mph 71 % 0.00 in 76.00 W/m2
18:02 52.3 °F 43.2 °F 30.06 in South 7.0 mph 8.0 mph 71 % 0.00 in 74.00 W/m2
18:07 52.3 °F 43.5 °F 30.06 in South 5.0 mph 10.0 mph 72 % 0.00 in 62.00 W/m2
18:12 52.2 °F 43.5 °F 30.06 in South 12.0 mph 13.0 mph 72 % 0.00 in 67.00 W/m2
18:17 52.2 °F 43.5 °F 30.06 in South 6.0 mph 9.0 mph 72 % 0.00 in 49.00 W/m2
18:22 52.1 °F 43.7 °F 30.06 in South 9.0 mph 10.0 mph 73 % 0.00 in 40.00 W/m2
18:27 52.1 °F 43.4 °F 30.06 in Calm   9.0 mph 72 % 0.00 in 44.00 W/m2
18:32 52.1 °F 43.7 °F 30.06 in Calm   9.0 mph 73 % 0.00 in 44.00 W/m2
18:37 52.0 °F 44.0 °F 30.06 in Calm   7.0 mph 74 % 0.00 in 54.00 W/m2
18:42 51.9 °F 43.2 °F 30.06 in South 7.0 mph 9.0 mph 72 % 0.00 in 46.00 W/m2
18:47 51.9 °F 43.5 °F 30.06 in Calm   8.0 mph 73 % 0.00 in 53.00 W/m2
18:52 51.9 °F 43.9 °F 30.05 in SSE 10.0 mph 10.0 mph 74 % 0.00 in 51.00 W/m2
18:57 51.8 °F 44.8 °F 30.05 in SSE 5.0 mph 8.0 mph 77 % 0.00 in 40.00 W/m2
19:02 51.7 °F 43.7 °F 30.05 in South 6.0 mph 10.0 mph 74 % 0.00 in 42.00 W/m2
19:07 51.6 °F 43.6 °F 30.05 in SSE 11.0 mph 12.0 mph 74 % 0.00 in 30.00 W/m2
19:13 51.6 °F 43.6 °F 30.05 in SSE 5.0 mph 9.0 mph 74 % 0.00 in 23.00 W/m2
19:18 51.5 °F 43.5 °F 30.05 in Calm   10.0 mph 74 % 0.00 in 18.00 W/m2
19:23 51.5 °F 43.5 °F 30.05 in Calm   9.0 mph 74 % 0.00 in 11.00 W/m2
19:28 51.4 °F 43.4 °F 30.05 in Calm   7.0 mph 74 % 0.00 in 7.00 W/m2
19:33 51.3 °F 43.7 °F 30.05 in South 9.0 mph 12.0 mph 75 % 0.00 in 5.00 W/m2
19:38 51.2 °F 43.6 °F 30.05 in SSE 6.0 mph 9.0 mph 75 % 0.00 in 0.00 W/m2
19:43 51.1 °F 43.5 °F 30.05 in SSE 7.0 mph 10.0 mph 75 % 0.00 in 0.00 W/m2
19:48 51.0 °F 43.7 °F 30.05 in Calm   6.0 mph 76 % 0.00 in 0.00 W/m2
19:53 50.9 °F 43.6 °F 30.06 in SSE 1.0 mph 7.0 mph 76 % 0.00 in 0.00 W/m2
19:58 50.9 °F 43.6 °F 30.06 in SSE 7.0 mph 12.0 mph 76 % 0.00 in 0.00 W/m2
20:03 50.8 °F 43.5 °F 30.05 in Calm   8.0 mph 76 % 0.00 in 0.00 W/m2
20:08 50.8 °F 43.9 °F 30.05 in SSE 4.0 mph 6.0 mph 77 % 0.00 in 0.00 W/m2
20:13 50.7 °F 43.4 °F 30.06 in SSE 6.0 mph 11.0 mph 76 % 0.00 in 0.00 W/m2
20:18 50.6 °F 43.3 °F 30.06 in Calm   9.0 mph 76 % 0.00 in 0.00 W/m2
20:23 50.6 °F 43.7 °F 30.06 in SSE 5.0 mph 10.0 mph 77 % 0.00 in 0.00 W/m2
20:28 50.5 °F 43.2 °F 30.06 in SSE 7.0 mph 11.0 mph 76 % 0.00 in 0.00 W/m2
20:33 50.5 °F 43.6 °F 30.06 in Calm   10.0 mph 77 % 0.00 in 0.00 W/m2
20:38 50.4 °F 43.5 °F 30.06 in SSE 5.0 mph 12.0 mph 77 % 0.00 in 0.00 W/m2
20:43 50.3 °F 43.4 °F 30.06 in SSE 6.0 mph 9.0 mph 77 % 0.00 in 0.00 W/m2
20:48 50.2 °F 43.6 °F 30.06 in SSE 4.0 mph 13.0 mph 78 % 0.00 in 0.00 W/m2
20:53 50.1 °F 43.5 °F 30.06 in Calm   9.0 mph 78 % 0.00 in 0.00 W/m2
20:58 49.9 °F 43.0 °F 30.06 in SSE 8.0 mph 10.0 mph 77 % 0.00 in 0.00 W/m2
21:03 49.9 °F 43.3 °F 30.07 in SE 9.0 mph 11.0 mph 78 % 0.00 in 0.00 W/m2
21:08 49.8 °F 43.6 °F 30.07 in SSE 1.0 mph 11.0 mph 79 % 0.00 in 0.00 W/m2
21:13 49.7 °F 43.5 °F 30.06 in SSE 1.0 mph 15.0 mph 79 % 0.00 in 0.00 W/m2
21:18 49.6 °F 43.4 °F 30.06 in SE 11.0 mph 11.0 mph 79 % 0.00 in 0.00 W/m2
21:19 49.6 °F 43.4 °F 30.06 in SE 8.0 mph 15.0 mph 79 % 0.00 in 0.00 W/m2
21:24 49.6 °F 43.4 °F 30.06 in SE 7.0 mph 11.0 mph 79 % 0.00 in 0.00 W/m2
21:29 49.5 °F 43.3 °F 30.06 in Calm   10.0 mph 79 % 0.00 in 0.00 W/m2
21:34 49.4 °F 43.2 °F 30.06 in SE 8.0 mph 11.0 mph 79 % 0.00 in 0.00 W/m2
21:39 49.4 °F 43.5 °F 30.06 in Calm   9.0 mph 80 % 0.00 in 0.00 W/m2
21:44 49.2 °F 43.0 °F 30.06 in SE 7.0 mph 9.0 mph 79 % 0.00 in 0.00 W/m2
21:49 49.2 °F 43.0 °F 30.06 in SE 6.0 mph 10.0 mph 79 % 0.00 in 0.00 W/m2
21:54 49.1 °F 43.2 °F 30.07 in SE 8.0 mph 11.0 mph 80 % 0.00 in 0.00 W/m2
21:59 49.0 °F 43.1 °F 30.07 in SE 4.0 mph 12.0 mph 80 % 0.00 in 0.00 W/m2
22:04 48.8 °F 42.9 °F 30.06 in SE 7.0 mph 8.0 mph 80 % 0.00 in 0.00 W/m2
22:09 48.8 °F 43.2 °F 30.06 in SE 6.0 mph 9.0 mph 81 % 0.00 in 0.00 W/m2
22:14 48.7 °F 43.1 °F 30.07 in SE 8.0 mph 9.0 mph 81 % 0.00 in 0.00 W/m2
22:19 48.7 °F 43.1 °F 30.07 in SE 10.0 mph 12.0 mph 81 % 0.00 in 0.00 W/m2
22:24 48.7 °F 43.1 °F 30.07 in SE 7.0 mph 10.0 mph 81 % 0.00 in 0.00 W/m2
22:29 48.7 °F 43.1 °F 30.06 in SE 6.0 mph 11.0 mph 81 % 0.00 in 0.00 W/m2
22:34 48.7 °F 43.1 °F 30.06 in SE 4.0 mph 10.0 mph 81 % 0.00 in 0.00 W/m2
22:39 48.7 °F 43.1 °F 30.06 in Calm   10.0 mph 81 % 0.00 in 0.00 W/m2
22:44 48.7 °F 43.1 °F 30.05 in Calm   11.0 mph 81 % 0.00 in 0.00 W/m2
22:49 48.7 °F 42.8 °F 30.06 in Calm   10.0 mph 80 % 0.00 in 0.00 W/m2
22:54 48.7 °F 42.8 °F 30.06 in Calm   8.0 mph 80 % 0.00 in 0.00 W/m2
22:59 48.7 °F 42.8 °F 30.05 in Calm   8.0 mph 80 % 0.00 in 0.00 W/m2
23:04 48.7 °F 43.1 °F 30.05 in Calm   5.0 mph 81 % 0.00 in 0.00 W/m2
23:09 48.6 °F 43.0 °F 30.06 in Calm   8.0 mph 81 % 0.00 in 0.00 W/m2
23:14 48.6 °F 43.0 °F 30.06 in Calm     81 % 0.00 in 0.00 W/m2
23:19 48.6 °F 43.0 °F 30.06 in Calm   6.0 mph 81 % 0.00 in 0.00 W/m2
23:20 48.6 °F 43.0 °F 30.06 in SSE 1.0 mph 6.0 mph 81 % 0.00 in 0.00 W/m2
23:25 48.5 °F 43.3 °F 30.06 in Calm     82 % 0.00 in 0.00 W/m2
23:30 48.5 °F 43.3 °F 30.06 in Calm   1.0 mph 82 % 0.00 in 0.00 W/m2
23:35 48.5 °F 43.6 °F 30.06 in Calm     83 % 0.00 in 0.00 W/m2
23:40 48.4 °F 43.2 °F 30.06 in Calm     82 % 0.00 in 0.00 W/m2
23:45 48.4 °F 43.5 °F 30.06 in Calm     83 % 0.00 in 0.00 W/m2
23:50 48.4 °F 43.5 °F 30.06 in Calm     83 % 0.00 in 0.00 W/m2
23:55 48.4 °F 43.5 °F 30.06 in Calm     83 % 0.00 in 0.00 W/m2
Juneau County Weather
Compliments of Weather Underground - 4.5 mb
 WU-history PHP script courtesy of   Juneau County Weather.
powered by Cumulus v1.9.3 (1059)
Ambient Weather VWS v14.00
Top Contact Website Map Copyright © 2007 - 2018 Foresthillweather.com Never base important decisions on this or any weather information obtained from the Internet